Aeroporto :
LOGIN :

Iscrizione | Disclaimer

   EN    FR    IT 

 










Sommario :    VFR   VFR Marginale   IFR   IFR Intensivo   IFR Molto Intensivo
Visibilità : 
Base nubi : 
>= 8 km
>= 3000ft
5 / 8 km
1000 / 3000 ft
1500m / 5 km
500 / 1000 ft
800 / 1500m
200 / 500 ft
< 800m
< 200 ft
Simboli :   Temporali  Nebbia  Neve Forte  Precipitazioni Forti  Vento > 20 kt
SIGMETs :   Varie  Temporali  Ghiacco  Turbolenza  Onda orograficha  Ceneri Vulcaniche






- Altitudine del aeroporto : 602 ft
- Codice IATA : NVS


LFQG - Nevers

ULTIMO METAR :
  • 190800Z AUTO 13006KT 080V160 CAVOK 19/17 Q1014

METARs OBSOLETI :
  • 190730Z AUTO 09006KT 070V130 CAVOK 19/17 Q1014
  • 190630Z AUTO 32004KT 290V360 9999 FEW035/// BKN060/// BKN080/// ///CB 17/16 Q1014
  • 190600Z AUTO 33006KT 280V020 1900 RA BR SCT008/// SCT020/// BKN032/// ///CB 17/16 Q1015

TAF N/A



MetMap, La meteo Aeronautica in un colpo d'occhio ! - Copyright ORBIFLY Dicembre 2007 - Disclaimer

ORBIFLY MET'MAP TEAM :

Programmazione e sviluppo : Alexandra Zaïnal
Concezione : Baudouin d'Aumeries
Supporto tecnico e logistico : Manuel Goepfert
Aiuto : Marc-Olivier Méhu
Aiuto per la traduzione : Arnaldo La Scala




FONTI E CREDITI :

   NOAA